Location: Newark
(47.5500°N, 8.6167°E)
Time: 21:00:38
(UTC+00:00)

Envisat - Pass Details

Date: 26 January 2020
Orbit: 764 x 766 km, 98.1° (Epoch: 25 February)

Event Time Altitude Azimuth Distance (km) Brightness Sun altitude
Rises 16:51:09 0° 157° (SSE) 3,221 6.2 -6.1°
Reaches altitude 10° 16:53:27 10° 155° (SSE) 2,299 5.4 -6.5°
Maximum altitude 16:58:29 69° 73° (ENE) 822 3.0 -7.3°
Drops below altitude 10° 17:03:33 10° 351° (N) 2,315 5.4 -8.1°
Sets 17:05:52 0° 349° (N) 3,246 6.2 -8.5°
